,

(GMT )
Al Udeid

Weather History for KQIR - November, 2012

Change the Weather History Date:

Wednesday, November 28, 2012

  Actual Average Record
Temperature  
Mean Temperature 70 °F -  
Max Temperature 77 °F - - ()
Min Temperature 63 °F - - ()
Cooling Degree Days 5    
Growing Degree Days 20 (Base 50)    
Moisture  
Dew Point 53 °F    
Average Humidity 56    
Maximum Humidity 69    
Minimum Humidity 36    
Precipitation  
Precipitation 0.00 in - - ()
Sea Level Pressure  
Sea Level Pressure 30.08 in    
Wind  
Wind Speed 11 mph ()    
Max Wind Speed 21 mph    
Max Gust Speed 26 mph    
Visibility 6.2 miles    
Events      
Averages and records for this station are not official NWS values.
T = Trace of Precipitation, MM = Missing Value Source: Averaged Metar Reports

Daily Weather History Graph

Daily Weather History Graph

Search for Another Location

Airport or City:

Trip Planner

Search our weather history database for the weather conditions in past years. The results will help you decide how hot, cold, wet, or windy it might be!

Date:

Astronomy

Nov. 28, 2012 Rise Set
Actual Time 6:01 AM +03 4:44 PM +03
Civil Twilight 5:36 AM +03 5:08 PM +03
Nautical Twilight 5:08 AM +03 5:37 PM +03
Astronomical Twilight 4:40 AM +03 6:04 PM +03
Moon 4:41 PM +03 (11/28) 5:39 AM +03 (11/28)
Length of Visible Light 11h 32m
Length of Day
10h 43m
Full, 100% of the Moon is Illuminated
Nov 28
Full
Nov 28
Full
Dec 6
Last Quarter
Dec 13
New
Dec 20
First Quarter

Hourly Weather History & Observations

Time (+03) Temp. Dew Point Humidity Pressure Visibility Wind Dir Wind Speed Gust Speed Precip Events Conditions
12:55 AM 66.0 °F 52.7 °F 62% 30.06 in 6.2 mi NW 10.4 mph - N/A   Clear
1:55 AM 64.6 °F 52.0 °F 64% 30.06 in 6.2 mi NNW 8.1 mph - N/A   Clear
2:55 AM 63.9 °F 50.9 °F 63% 30.06 in 6.2 mi NNW 10.4 mph - N/A   Clear
3:55 AM 63.7 °F 51.8 °F 65% 30.06 in 6.2 mi NW 12.7 mph - N/A   Clear
4:55 AM 63.3 °F 51.4 °F 65% 30.07 in 6.2 mi NW 10.4 mph - N/A   Clear
5:55 AM 63.0 °F 50.9 °F 65% 30.09 in 6.2 mi WNW 9.2 mph - N/A   Clear
6:55 AM 63.5 °F 52.2 °F 67% 30.11 in 6.2 mi WNW 8.1 mph - N/A   Clear
7:55 AM 68.2 °F 55.6 °F 64% 30.13 in 6.2 mi NW 12.7 mph - N/A   Clear
8:55 AM 72.0 °F 55.4 °F 56% 30.14 in 6.2 mi NW 15.0 mph - N/A   Clear
9:55 AM 74.8 °F 52.3 °F 45% 30.13 in 6.2 mi NW 19.6 mph 26.5 mph N/A   Clear
10:55 AM 76.5 °F 52.2 °F 43% 30.11 in 6.2 mi NW 17.3 mph - N/A   Clear
11:55 AM 77.4 °F 49.5 °F 37% 30.08 in 6.2 mi NNW 17.3 mph - N/A   Clear
12:55 PM 77.4 °F 50.2 °F 38% 30.06 in 6.2 mi NNW 17.3 mph - N/A   Clear
1:55 PM 77.4 °F 48.6 °F 36% 30.05 in 6.2 mi NNW 15.0 mph 25.3 mph N/A   Clear
2:55 PM 76.1 °F 51.6 °F 42% 30.06 in 6.2 mi NW 20.7 mph - N/A   Clear
3:55 PM 73.8 °F 52.0 °F 46% 30.06 in 6.2 mi NW 18.4 mph - N/A   Clear
4:55 PM 71.8 °F 55.6 °F 57% 30.07 in 6.2 mi NW 15.0 mph - N/A   Clear
5:55 PM 71.1 °F 55.4 °F 58% 30.08 in 6.2 mi NNW 17.3 mph - N/A   Clear
6:55 PM 69.3 °F 56.8 °F 65% 30.10 in 6.2 mi NNW 17.3 mph - N/A   Clear
8:55 PM 67.5 °F 56.7 °F 68% 30.09 in 6.2 mi NW 10.4 mph - N/A   Clear
9:55 PM 66.4 °F 55.8 °F 69% 30.09 in 6.2 mi NW 9.2 mph - N/A   Clear
11:55 PM 65.5 °F 52.7 °F 63% 30.08 in 6.2 mi WNW 8.1 mph - N/A   Clear